Home > Weather > Mombasa > Past weeks

Flag for Kenya Past Weather in Mombasa, Kenya — Yesterday and Last 2 Weeks

Now
77 °F

Passing clouds.


Feels Like: 78 °F
Forecast: 72 / 82 °F
Wind: 8 mph from South

Location: Mombasa Airport

Current Time: Jul 24, 2016 at 9:40:35 PM

Latest Report: Jul 24, 2016 at 9:00 PM


Visibility: N/A

Pressure: 30.01 "Hg

Humidity: 83%

Dew Point: 72 °F

Location of MombasaLocation

Past Weather in Mombasa — Graph

°F

Mombasa Temperature Yesterday

Maximum temperature yesterday: 84 °F (at 2:00 PM)
Minimum temperature yesterday: 70 °F (at 2:00 AM)
Average temperature yesterday: 76 °F

High & Low Weather Summary for the Past Weeks

 TemperatureHumidityPressure
High84 °F (Jul 20, 2:00 PM)94% (Jul 10, 7:00 AM)30.15 "Hg (Jul 10, 7:00 AM)
Low68 °F (Jul 14, 6:00 AM)48% (Jul 23, 2:00 PM)29.92 "Hg (Jul 24, 4:00 PM)
Average76 °F77%30.04 "Hg
* Reported Jul 9 8:00 PM — Jul 24 8:00 PM, Mombasa, Weather by CustomWeather, © 2016

Note: Actual official high and low records may vary slightly from our data, if they occured in-between our weather recording intervals... More about our weather records

Advertising

Mombasa Weather History for the Previous 24 Hours

Scroll right to see more
 ConditionsComfort  
Time TempWeatherWind HumidityBarometerVisibility
8:00 PM
Sun, Jul 24
77 °FPassing clouds.9 mph83%29.98 "HgN/A
7:00 PM77 °FPassing clouds.6 mph83%29.98 "HgN/A
6:00 PM79 °FScattered clouds.8 mph79%29.95 "HgN/A
5:00 PM82 °FPassing clouds.9 mph62%29.95 "HgN/A
4:00 PM82 °FPassing clouds.10 mph62%29.92 "HgN/A
3:00 PM84 °FScattered clouds.10 mph62%29.95 "HgN/A
12:00 PM82 °FPartly sunny.10 mph66%30.01 "HgN/A
11:00 AM84 °FPartly sunny.9 mph66%30.04 "HgN/A
10:00 AM81 °FPartly sunny.8 mph74%30.04 "HgN/A
9:00 AM77 °FPartly sunny.7 mph83%30.04 "HgN/A
8:00 AM73 °FPartly sunny.7 mph94%30.01 "HgN/A
7:00 AM73 °FSprinkles. Broken clouds.6 mph89%30.01 "HgN/A
6:00 AM72 °FPassing clouds.5 mph94%29.98 "HgN/A
3:00 AM73 °FPassing clouds.6 mph89%29.95 "HgN/A
2:00 AM72 °FPassing clouds.9 mph88%29.95 "HgN/A
12:00 AM73 °FPassing clouds.8 mph89%29.98 "HgN/A
11:00 PM
Sat, Jul 23
75 °FPassing clouds.6 mph83%30.01 "HgN/A
10:00 PM75 °FPassing clouds.8 mph83%30.01 "HgN/A
9:00 PM75 °FPassing clouds.7 mph89%29.98 "HgN/A
Weather by CustomWeather, © 2016

See weather overviewHow to use our weather pages